TimeEDT,TemperatureF,Dew PointF,Humidity,Sea Level PressureIn,VisibilityMPH,Wind Direction,Wind SpeedMPH,Gust SpeedMPH,PrecipitationIn,Events,Conditions,WindDirDegrees,DateUTC
12:54 AM,64.9,60.1,84,30.10,10.0,NNE,12.7,-,N/A,,Overcast,20,2013-10-15 04:54:00
1:54 AM,64.0,60.1,87,30.09,10.0,North,12.7,-,N/A,,Overcast,10,2013-10-15 05:54:00
2:54 AM,64.0,59.0,84,30.08,10.0,North,12.7,-,N/A,,Overcast,360,2013-10-15 06:54:00
3:54 AM,64.0,59.0,84,30.06,10.0,North,11.5,-,N/A,,Overcast,10,2013-10-15 07:54:00
4:54 AM,64.0,59.0,84,30.07,10.0,North,12.7,-,N/A,,Overcast,360,2013-10-15 08:54:00
5:21 AM,64.0,59.0,84,30.08,10.0,North,16.1,-,N/A,,Overcast,360,2013-10-15 09:21:00
5:51 AM,64.4,59.0,83,30.08,10.0,North,15.0,-,N/A,,Overcast,10,2013-10-15 09:51:00
5:54 AM,64.0,59.0,84,30.07,10.0,North,12.7,-,N/A,,Overcast,10,2013-10-15 09:54:00
6:20 AM,64.0,59.0,84,30.08,10.0,North,15.0,-,N/A,,Overcast,360,2013-10-15 10:20:00
6:54 AM,64.0,60.1,87,30.06,10.0,North,12.7,-,N/A,,Overcast,10,2013-10-15 10:54:00
7:54 AM,63.0,60.1,90,30.07,6.0,North,11.5,-,N/A,,Overcast,360,2013-10-15 11:54:00
8:54 AM,63.0,60.1,90,30.09,10.0,North,9.2,-,N/A,,Overcast,350,2013-10-15 12:54:00
9:54 AM,64.0,60.1,87,30.08,6.0,NNW,11.5,-,N/A,,Overcast,340,2013-10-15 13:54:00
10:54 AM,64.9,61.0,87,30.09,10.0,North,12.7,-,N/A,,Overcast,350,2013-10-15 14:54:00
11:54 AM,66.0,61.0,84,30.07,10.0,North,13.8,-,N/A,,Overcast,360,2013-10-15 15:54:00
12:33 PM,68.0,62.1,81,30.06,10.0,North,12.7,-,N/A,,Overcast,360,2013-10-15 16:33:00
12:54 PM,69.1,62.1,78,30.05,10.0,North,12.7,-,N/A,,Overcast,360,2013-10-15 16:54:00
1:54 PM,69.1,63.0,81,30.02,9.0,North,11.5,-,N/A,,Overcast,10,2013-10-15 17:54:00
2:54 PM,69.1,64.0,84,30.00,7.0,NNE,15.0,-,0.00,Rain,Light Rain,20,2013-10-15 18:54:00
3:13 PM,69.1,64.9,87,30.01,1.5,North,13.8,-,0.00,Rain,Light Rain,10,2013-10-15 19:13:00
3:28 PM,68.0,64.9,90,30.01,1.5,North,10.4,-,0.00,Rain,Light Rain,350,2013-10-15 19:28:00
3:38 PM,68.0,64.9,90,30.01,1.5,North,9.2,-,0.00,Rain,Light Rain,350,2013-10-15 19:38:00
3:45 PM,66.9,64.9,93,30.01,1.5,North,9.2,-,0.00,Rain,Light Rain,360,2013-10-15 19:45:00
3:54 PM,66.9,64.0,90,30.01,1.5,North,10.4,-,0.00,Rain,Light Rain,360,2013-10-15 19:54:00
4:01 PM,68.0,64.9,90,30.01,10.0,North,10.4,-,0.00,Rain,Light Rain,360,2013-10-15 20:01:00
4:38 PM,68.0,64.0,87,30.01,10.0,North,11.5,-,0.00,,Overcast,350,2013-10-15 20:38:00
4:54 PM,69.1,64.0,84,30.00,10.0,North,10.4,-,0.00,,Overcast,350,2013-10-15 20:54:00
5:27 PM,69.1,64.0,84,30.01,10.0,North,12.7,-,N/A,,Overcast,350,2013-10-15 21:27:00
5:54 PM,69.1,64.0,84,30.00,10.0,North,10.4,-,N/A,,Overcast,360,2013-10-15 21:54:00
6:37 PM,69.1,64.0,84,30.01,10.0,North,10.4,-,N/A,,Overcast,350,2013-10-15 22:37:00
6:54 PM,69.1,64.0,84,30.01,10.0,North,12.7,-,N/A,,Overcast,350,2013-10-15 22:54:00
7:49 PM,69.8,64.4,83,30.02,10.0,North,13.8,-,N/A,,Overcast,10,2013-10-15 23:49:00
7:54 PM,69.1,64.0,84,30.02,10.0,North,13.8,-,N/A,,Overcast,360,2013-10-15 23:54:00
8:15 PM,68.0,64.0,87,30.03,10.0,North,12.7,-,N/A,,Overcast,360,2013-10-16 00:15:00
8:54 PM,66.9,64.0,90,30.02,10.0,North,10.4,-,N/A,,Overcast,10,2013-10-16 00:54:00
9:49 PM,68.0,64.4,88,30.04,10.0,North,9.2,-,N/A,,Overcast,360,2013-10-16 01:49:00
9:54 PM,68.0,64.0,87,30.03,10.0,North,11.5,-,N/A,,Overcast,360,2013-10-16 01:54:00
10:36 PM,68.0,64.0,87,30.02,10.0,North,12.7,-,N/A,,Overcast,360,2013-10-16 02:36:00
10:54 PM,68.0,64.0,87,30.01,10.0,NNE,11.5,-,N/A,,Overcast,20,2013-10-16 02:54:00
11:14 PM,66.9,64.0,90,30.02,10.0,North,8.1,-,N/A,,Overcast,10,2013-10-16 03:14:00
11:54 PM,66.9,63.0,87,30.00,10.0,North,12.7,-,N/A,,Overcast,10,2013-10-16 03:54:00